Time,TemperatureF,DewpointF,PressureIn,WindDirection,WindDirectionDegrees,WindSpeedMPH,WindSpeedGustMPH,Humidity,HourlyPrecipIn,Conditions,Clouds,dailyrainin,SoftwareType,DateUTC
2013-12-18 00:02:00,21.1,19.9,29.88,ESE,108,16.0,16.0,95,0.00,,,0.00,Wunderground v.1.15,2013-12-18 05:02:00,
2013-12-18 00:04:00,21.2,20.0,29.88,NNE,28,15.0,19.0,95,0.00,,,0.00,Wunderground v.1.15,2013-12-18 05:04:00,
2013-12-18 00:08:00,21.2,20.0,29.88,NNW,340,16.0,19.0,95,0.00,,,0.00,Wunderground v.1.15,2013-12-18 05:08:00,
2013-12-18 00:12:00,21.2,20.0,29.88,NNE,14,15.0,15.0,95,0.00,,,0.00,Wunderground v.1.15,2013-12-18 05:12:00,
2013-12-18 00:18:00,21.1,19.9,29.88,NNE,17,14.0,18.0,95,0.00,,,0.00,Wunderground v.1.15,2013-12-18 05:18:00,
2013-12-18 00:22:00,20.9,19.7,29.87,NE,48,15.0,16.0,95,0.00,,,0.00,Wunderground v.1.15,2013-12-18 05:22:00,
2013-12-18 00:28:00,20.8,19.6,29.87,NE,34,16.0,18.0,95,0.00,,,0.00,Wunderground v.1.15,2013-12-18 05:28:00,
2013-12-18 00:34:00,20.7,19.5,29.87,NNE,12,16.0,16.0,95,0.00,,,0.00,Wunderground v.1.15,2013-12-18 05:34:00,
2013-12-18 00:40:00,20.6,19.4,29.86,ENE,70,15.0,18.0,95,0.00,,,0.00,Wunderground v.1.15,2013-12-18 05:40:00,
2013-12-18 00:46:00,20.6,19.4,29.86,NE,46,15.0,18.0,95,0.00,,,0.00,Wunderground v.1.15,2013-12-18 05:46:00,
2013-12-18 00:52:00,20.7,19.5,29.87,North,10,14.0,15.0,95,0.00,,,0.00,Wunderground v.1.15,2013-12-18 05:52:00,
2013-12-18 00:58:00,20.5,19.0,29.87,NNE,33,14.0,17.0,94,0.00,,,0.00,Wunderground v.1.15,2013-12-18 05:58:00,
2013-12-18 01:04:00,20.4,18.9,29.88,North,3,15.0,16.0,94,0.00,,,0.00,Wunderground v.1.15,2013-12-18 06:04:00,
2013-12-18 01:10:00,20.4,18.9,29.87,NNE,15,15.0,17.0,94,0.00,,,0.00,Wunderground v.1.15,2013-12-18 06:10:00,
2013-12-18 01:18:00,20.3,18.8,29.86,North,354,15.0,17.0,94,0.00,,,0.00,Wunderground v.1.15,2013-12-18 06:18:00,
2013-12-18 01:24:00,20.3,18.8,29.86,NNE,25,15.0,15.0,94,0.00,,,0.00,Wunderground v.1.15,2013-12-18 06:24:00,
2013-12-18 01:30:00,20.2,18.8,29.86,North,9,14.0,15.0,94,0.00,,,0.00,Wunderground v.1.15,2013-12-18 06:30:00,
2013-12-18 01:37:00,20.3,18.8,29.86,NNE,13,14.0,15.0,94,0.00,,,0.00,Wunderground v.1.15,2013-12-18 06:37:00,
2013-12-18 01:42:00,20.4,18.9,29.87,NNE,27,12.0,14.0,94,0.00,,,0.00,Wunderground v.1.15,2013-12-18 06:42:00,
2013-12-18 01:48:00,20.5,19.0,29.86,North,1,14.0,17.0,94,0.00,,,0.00,Wunderground v.1.15,2013-12-18 06:48:00,
2013-12-18 01:54:00,20.6,19.1,29.86,North,1,16.0,16.0,94,0.00,,,0.00,Wunderground v.1.15,2013-12-18 06:54:00,
2013-12-18 02:00:00,20.7,19.2,29.86,North,3,16.0,16.0,94,0.00,,,0.00,Wunderground v.1.15,2013-12-18 07:00:00,
2013-12-18 02:08:00,20.7,19.2,29.86,NNE,18,15.0,17.0,94,0.00,,,0.00,Wunderground v.1.15,2013-12-18 07:08:00,
2013-12-18 02:14:00,20.9,19.4,29.86,NNE,24,13.0,17.0,94,0.00,,,0.00,Wunderground v.1.15,2013-12-18 07:14:00,
2013-12-18 02:20:00,21.0,19.5,29.87,North,6,12.0,14.0,94,0.00,,,0.00,Wunderground v.1.15,2013-12-18 07:20:00,
2013-12-18 02:26:00,21.2,19.7,29.87,NNE,16,13.0,17.0,94,0.00,,,0.00,Wunderground v.1.15,2013-12-18 07:26:00,
2013-12-18 02:34:00,21.4,19.9,29.86,NNE,21,16.0,19.0,94,0.00,,,0.00,Wunderground v.1.15,2013-12-18 07:34:00,
2013-12-18 02:40:00,21.5,20.0,29.87,NNE,24,17.0,17.0,94,0.00,,,0.00,Wunderground v.1.15,2013-12-18 07:40:00,
2013-12-18 02:48:00,21.5,20.0,29.87,NW,307,15.0,17.0,94,0.00,,,0.00,Wunderground v.1.15,2013-12-18 07:48:00,
2013-12-18 02:54:00,21.6,20.1,29.87,North,1,15.0,19.0,94,0.00,,,0.00,Wunderground v.1.15,2013-12-18 07:54:00,
2013-12-18 03:00:00,21.6,20.1,29.87,NNE,16,16.0,16.0,94,0.00,,,0.00,Wunderground v.1.15,2013-12-18 08:00:00,
2013-12-18 03:07:00,21.7,20.2,29.87,NNE,26,16.0,16.0,94,0.00,,,0.00,Wunderground v.1.15,2013-12-18 08:07:00,
2013-12-18 03:14:00,21.9,20.4,29.88,North,9,17.0,17.0,94,0.00,,,0.00,Wunderground v.1.15,2013-12-18 08:14:00,
2013-12-18 03:20:00,21.9,20.4,29.88,NNW,333,16.0,16.0,94,0.00,,,0.00,Wunderground v.1.15,2013-12-18 08:20:00,
2013-12-18 03:28:00,22.0,20.3,29.88,North,354,16.0,17.0,93,0.00,,,0.00,Wunderground v.1.15,2013-12-18 08:28:00,
2013-12-18 03:34:00,22.1,20.6,29.89,NNW,345,18.0,18.0,94,0.00,,,0.00,Wunderground v.1.15,2013-12-18 08:34:00,
2013-12-18 03:40:00,22.4,20.9,29.88,North,8,16.0,16.0,94,0.00,,,0.00,Wunderground v.1.15,2013-12-18 08:40:00,
2013-12-18 03:48:00,22.7,21.2,29.88,North,4,16.0,18.0,94,0.00,,,0.00,Wunderground v.1.15,2013-12-18 08:48:00,
2013-12-18 03:54:00,22.9,21.2,29.88,NNE,12,16.0,20.0,93,0.00,,,0.00,Wunderground v.1.15,2013-12-18 08:54:00,
2013-12-18 04:00:00,23.0,21.3,29.87,NNE,15,17.0,22.0,93,0.00,,,0.00,Wunderground v.1.15,2013-12-18 09:00:00,
2013-12-18 04:07:00,23.2,21.5,29.87,North,11,19.0,22.0,93,0.00,,,0.00,Wunderground v.1.15,2013-12-18 09:07:00,
2013-12-18 04:12:00,23.4,21.7,29.88,NNE,16,18.0,18.0,93,0.00,,,0.00,Wunderground v.1.15,2013-12-18 09:12:00,
2013-12-18 04:18:00,23.6,21.9,29.88,North,6,18.0,18.0,93,0.00,,,0.00,Wunderground v.1.15,2013-12-18 09:18:00,
2013-12-18 04:24:00,23.8,22.1,29.88,North,359,17.0,24.0,93,0.00,,,0.00,Wunderground v.1.15,2013-12-18 09:24:00,
2013-12-18 04:30:00,23.9,22.2,29.88,North,9,18.0,18.0,93,0.00,,,0.00,Wunderground v.1.15,2013-12-18 09:30:00,
2013-12-18 04:36:00,24.2,22.5,29.88,North,349,18.0,19.0,93,0.00,,,0.00,Wunderground v.1.15,2013-12-18 09:36:00,
2013-12-18 04:42:00,24.2,22.2,29.88,NNW,338,18.0,22.0,92,0.00,,,0.00,Wunderground v.1.15,2013-12-18 09:42:00,
2013-12-18 04:48:00,24.2,22.2,29.88,North,8,17.0,22.0,92,0.00,,,0.00,Wunderground v.1.15,2013-12-18 09:48:00,
2013-12-18 04:54:00,24.3,22.3,29.88,NNW,344,17.0,17.0,92,0.00,,,0.00,Wunderground v.1.15,2013-12-18 09:54:00,
2013-12-18 05:00:00,24.5,22.5,29.88,NNW,347,19.0,19.0,92,0.00,,,0.00,Wunderground v.1.15,2013-12-18 10:00:00,
2013-12-18 05:06:00,24.7,22.7,29.88,NNE,27,18.0,21.0,92,0.00,,,0.00,Wunderground v.1.15,2013-12-18 10:06:00,
2013-12-18 05:12:00,24.8,22.5,29.88,North,353,20.0,24.0,91,0.00,,,0.00,Wunderground v.1.15,2013-12-18 10:12:00,
2013-12-18 05:18:00,24.8,22.3,29.88,North,349,21.0,27.0,90,0.00,,,0.00,Wunderground v.1.15,2013-12-18 10:18:00,
2013-12-18 05:24:00,24.8,22.3,29.89,North,352,21.0,24.0,90,0.00,,,0.00,Wunderground v.1.15,2013-12-18 10:24:00,
2013-12-18 05:30:00,24.8,22.3,29.89,NNW,338,22.0,22.0,90,0.00,,,0.00,Wunderground v.1.15,2013-12-18 10:30:00,
2013-12-18 05:38:00,24.8,22.5,29.89,North,9,21.0,23.0,91,0.00,,,0.00,Wunderground v.1.15,2013-12-18 10:38:00,
2013-12-18 05:44:00,24.8,22.5,29.90,NNW,341,18.0,20.0,91,0.00,,,0.00,Wunderground v.1.15,2013-12-18 10:44:00,
2013-12-18 05:50:00,24.9,22.6,29.90,NNW,342,19.0,19.0,91,0.00,,,0.00,Wunderground v.1.15,2013-12-18 10:50:00,
2013-12-18 05:58:00,25.0,22.5,29.90,North,3,17.0,20.0,90,0.00,,,0.00,Wunderground v.1.15,2013-12-18 10:58:00,
2013-12-18 06:04:00,24.9,22.4,29.90,North,354,17.0,19.0,90,0.00,,,0.00,Wunderground v.1.15,2013-12-18 11:04:00,
2013-12-18 06:10:00,25.0,22.2,29.91,NNW,340,16.0,16.0,89,0.00,,,0.00,Wunderground v.1.15,2013-12-18 11:10:00,
2013-12-18 06:18:00,25.2,22.1,29.91,NW,316,16.0,17.0,88,0.00,,,0.00,Wunderground v.1.15,2013-12-18 11:18:00,
2013-12-18 06:24:00,25.3,22.0,29.91,NNW,341,16.0,16.0,87,0.00,,,0.00,Wunderground v.1.15,2013-12-18 11:24:00,
2013-12-18 06:30:00,25.4,22.1,29.92,NW,323,17.0,17.0,87,0.00,,,0.00,Wunderground v.1.15,2013-12-18 11:30:00,
2013-12-18 06:38:00,25.4,22.1,29.92,NW,325,17.0,18.0,87,0.00,,,0.00,Wunderground v.1.15,2013-12-18 11:38:00,
2013-12-18 06:44:00,25.3,21.7,29.92,NW,316,16.0,18.0,86,0.00,,,0.00,Wunderground v.1.15,2013-12-18 11:44:00,
2013-12-18 06:48:00,25.2,21.6,29.92,NW,320,17.0,18.0,86,0.00,,,0.00,Wunderground v.1.15,2013-12-18 11:48:00,
2013-12-18 06:54:00,25.1,21.5,29.92,NW,315,16.0,17.0,86,0.00,,,0.00,Wunderground v.1.15,2013-12-18 11:54:00,
2013-12-18 07:00:00,25.1,21.5,29.92,NW,319,17.0,20.0,86,0.00,,,0.00,Wunderground v.1.15,2013-12-18 12:00:00,
2013-12-18 07:07:00,25.1,21.5,29.93,NW,315,17.0,20.0,86,0.00,,,0.00,Wunderground v.1.15,2013-12-18 12:07:00,
2013-12-18 07:14:00,25.2,21.6,29.93,NW,316,16.0,20.0,86,0.00,,,0.00,Wunderground v.1.15,2013-12-18 12:14:00,
2013-12-18 07:20:00,25.3,21.7,29.94,NW,309,15.0,15.0,86,0.00,,,0.00,Wunderground v.1.15,2013-12-18 12:20:00,
2013-12-18 07:26:00,25.4,21.5,29.94,NW,315,16.0,16.0,85,0.00,,,0.00,Wunderground v.1.15,2013-12-18 12:26:00,
2013-12-18 07:32:00,25.8,21.6,29.94,NW,319,18.0,24.0,84,0.00,,,0.00,Wunderground v.1.15,2013-12-18 12:32:00,
2013-12-18 07:38:00,25.8,21.6,29.94,NW,317,19.0,24.0,84,0.00,,,0.00,Wunderground v.1.15,2013-12-18 12:38:00,
2013-12-18 07:44:00,25.8,21.1,29.95,NW,319,17.0,21.0,82,0.00,,,0.00,Wunderground v.1.15,2013-12-18 12:44:00,
2013-12-18 07:50:00,25.9,21.2,29.95,NW,326,19.0,19.0,82,0.00,,,0.00,Wunderground v.1.15,2013-12-18 12:50:00,
2013-12-18 07:56:00,25.6,21.2,29.95,NNW,333,17.0,19.0,83,0.00,,,0.00,Wunderground v.1.15,2013-12-18 12:56:00,
2013-12-18 08:02:00,25.7,21.5,29.95,NNW,328,15.0,16.0,84,0.00,,,0.00,Wunderground v.1.15,2013-12-18 13:02:00,
2013-12-18 08:08:00,25.7,21.5,29.95,NNW,330,13.0,16.0,84,0.00,,,0.00,Wunderground v.1.15,2013-12-18 13:08:00,
2013-12-18 08:14:00,25.8,21.3,29.95,NNW,331,12.0,14.0,83,0.00,,,0.00,Wunderground v.1.15,2013-12-18 13:14:00,
2013-12-18 08:20:00,25.9,21.7,29.96,NW,316,11.0,16.0,84,0.00,,,0.00,Wunderground v.1.15,2013-12-18 13:20:00,
2013-12-18 08:26:00,25.8,21.3,29.96,NW,308,14.0,18.0,83,0.00,,,0.00,Wunderground v.1.15,2013-12-18 13:26:00,
2013-12-18 08:32:00,25.8,21.3,29.96,NW,311,16.0,17.0,83,0.00,,,0.00,Wunderground v.1.15,2013-12-18 13:32:00,
2013-12-18 08:38:00,25.8,21.1,29.96,WNW,299,17.0,19.0,82,0.00,,,0.00,Wunderground v.1.15,2013-12-18 13:38:00,
2013-12-18 08:44:00,26.1,21.6,29.97,WNW,302,16.0,18.0,83,0.00,,,0.00,Wunderground v.1.15,2013-12-18 13:44:00,
2013-12-18 08:50:00,25.9,21.2,29.96,WNW,283,14.0,14.0,82,0.00,,,0.00,Wunderground v.1.15,2013-12-18 13:50:00,
2013-12-18 08:56:00,25.8,21.3,29.97,WNW,301,14.0,16.0,83,0.00,,,0.00,Wunderground v.1.15,2013-12-18 13:56:00,
2013-12-18 09:02:00,25.7,21.3,29.97,NW,320,14.0,16.0,83,0.00,,,0.00,Wunderground v.1.15,2013-12-18 14:02:00,
2013-12-18 09:08:00,25.7,21.3,29.97,NW,309,14.0,16.0,83,0.00,,,0.00,Wunderground v.1.15,2013-12-18 14:08:00,
2013-12-18 09:14:00,25.4,20.7,29.97,NW,311,14.0,18.0,82,0.00,,,0.00,Wunderground v.1.15,2013-12-18 14:14:00,
2013-12-18 09:20:00,25.4,21.0,29.97,WNW,298,16.0,16.0,83,0.00,,,0.00,Wunderground v.1.15,2013-12-18 14:20:00,
2013-12-18 09:28:00,25.3,20.6,29.97,WNW,290,15.0,18.0,82,0.00,,,0.00,Wunderground v.1.15,2013-12-18 14:28:00,
2013-12-18 09:34:00,25.1,20.9,29.97,West,276,17.0,18.0,84,0.00,,,0.00,Wunderground v.1.15,2013-12-18 14:34:00,
2013-12-18 09:40:00,25.3,21.4,29.98,WNW,293,19.0,19.0,85,0.00,,,0.00,Wunderground v.1.15,2013-12-18 14:40:00,
2013-12-18 09:47:00,25.6,21.4,29.98,WNW,285,21.0,22.0,84,0.00,,,0.00,Wunderground v.1.15,2013-12-18 14:47:00,
2013-12-18 09:52:00,25.8,21.3,29.98,WNW,290,20.0,20.0,83,0.00,,,0.00,Wunderground v.1.15,2013-12-18 14:52:00,
2013-12-18 09:58:00,26.1,21.9,29.98,WNW,286,19.0,20.0,84,0.00,,,0.00,Wunderground v.1.15,2013-12-18 14:58:00,
2013-12-18 10:04:00,26.0,21.5,29.98,WNW,291,19.0,23.0,83,0.00,,,0.00,Wunderground v.1.15,2013-12-18 15:04:00,
2013-12-18 10:10:00,25.8,21.1,29.97,WNW,285,21.0,29.0,82,0.00,,,0.00,Wunderground v.1.15,2013-12-18 15:10:00,
2013-12-18 10:18:00,25.9,21.4,29.98,WNW,301,23.0,29.0,83,0.00,,,0.00,Wunderground v.1.15,2013-12-18 15:18:00,
2013-12-18 10:24:00,25.9,21.7,29.98,WNW,291,19.0,22.0,84,0.00,,,0.00,Wunderground v.1.15,2013-12-18 15:24:00,
2013-12-18 10:30:00,25.8,21.3,29.98,West,275,18.0,18.0,83,0.00,,,0.00,Wunderground v.1.15,2013-12-18 15:30:00,
2013-12-18 10:38:00,25.6,20.9,29.97,WNW,291,19.0,21.0,82,0.00,,,0.00,Wunderground v.1.15,2013-12-18 15:38:00,
2013-12-18 10:44:00,25.7,21.3,29.97,WNW,288,19.0,19.0,83,0.00,,,0.00,Wunderground v.1.15,2013-12-18 15:44:00,
2013-12-18 10:50:00,25.9,21.2,29.97,WNW,293,18.0,18.0,82,0.00,,,0.00,Wunderground v.1.15,2013-12-18 15:50:00,
2013-12-18 10:56:00,26.0,21.5,29.97,WNW,283,18.0,23.0,83,0.00,,,0.00,Wunderground v.1.15,2013-12-18 15:56:00,
2013-12-18 11:02:00,26.1,21.4,29.97,WNW,292,20.0,20.0,82,0.00,,,0.00,Wunderground v.1.15,2013-12-18 16:02:00,
2013-12-18 11:08:00,26.3,21.6,29.97,West,279,18.0,22.0,82,0.00,,,0.00,Wunderground v.1.15,2013-12-18 16:08:00,
2013-12-18 11:14:00,26.6,22.1,29.97,WNW,285,20.0,25.0,83,0.00,,,0.00,Wunderground v.1.15,2013-12-18 16:14:00,
2013-12-18 11:20:00,26.8,22.0,29.97,West,276,21.0,21.0,82,0.00,,,0.00,Wunderground v.1.15,2013-12-18 16:20:00,
2013-12-18 11:26:00,26.9,22.1,29.97,WNW,285,20.0,23.0,82,0.00,,,0.00,Wunderground v.1.15,2013-12-18 16:26:00,
2013-12-18 11:32:00,27.2,22.4,29.97,WNW,297,19.0,19.0,82,0.00,,,0.00,Wunderground v.1.15,2013-12-18 16:32:00,
2013-12-18 11:38:00,27.3,22.5,29.97,West,259,21.0,21.0,82,0.00,,,0.00,Wunderground v.1.15,2013-12-18 16:38:00,
2013-12-18 11:44:00,27.7,22.6,29.97,WNW,287,17.0,19.0,81,0.00,,,0.00,Wunderground v.1.15,2013-12-18 16:44:00,
2013-12-18 11:50:00,27.8,22.4,29.96,WNW,287,17.0,18.0,80,0.00,,,0.00,Wunderground v.1.15,2013-12-18 16:50:00,
2013-12-18 11:58:00,28.2,22.8,29.96,West,265,16.0,18.0,80,0.00,,,0.00,Wunderground v.1.15,2013-12-18 16:58:00,
2013-12-18 12:04:00,28.3,22.9,29.96,WNW,295,17.0,17.0,80,0.00,,,0.00,Wunderground v.1.15,2013-12-18 17:04:00,
2013-12-18 12:10:00,28.7,22.7,29.96,WNW,282,17.0,17.0,78,0.00,,,0.00,Wunderground v.1.15,2013-12-18 17:10:00,
2013-12-18 12:16:00,28.8,22.5,29.96,WNW,293,18.0,19.0,77,0.00,,,0.00,Wunderground v.1.15,2013-12-18 17:16:00,
2013-12-18 12:22:00,29.1,23.1,29.95,WNW,283,18.0,18.0,78,0.00,,,0.00,Wunderground v.1.15,2013-12-18 17:22:00,
2013-12-18 12:28:00,29.4,23.4,29.95,NW,311,17.0,21.0,78,0.00,,,0.00,Wunderground v.1.15,2013-12-18 17:28:00,
2013-12-18 12:34:00,29.6,23.6,29.95,NW,311,18.0,18.0,78,0.00,,,0.00,Wunderground v.1.15,2013-12-18 17:34:00,
2013-12-18 12:40:00,30.1,23.1,29.95,West,266,20.0,28.0,75,0.00,,,0.00,Wunderground v.1.15,2013-12-18 17:40:00,
2013-12-18 12:48:00,30.2,22.6,29.95,West,281,25.0,29.0,73,0.00,,,0.00,Wunderground v.1.15,2013-12-18 17:48:00,
2013-12-18 12:54:00,30.2,22.3,29.96,West,277,25.0,25.0,72,0.00,,,0.00,Wunderground v.1.15,2013-12-18 17:54:00,
2013-12-18 13:00:00,30.7,23.1,29.96,WSW,255,22.0,22.0,73,0.00,,,0.00,Wunderground v.1.15,2013-12-18 18:00:00,
2013-12-18 13:07:00,30.9,22.9,29.95,WNW,287,19.0,22.0,72,0.00,,,0.00,Wunderground v.1.15,2013-12-18 18:07:00,
2013-12-18 13:12:00,31.0,22.7,29.96,West,274,21.0,21.0,71,0.00,,,0.00,Wunderground v.1.15,2013-12-18 18:12:00,
2013-12-18 13:18:00,30.9,22.3,29.95,West,272,23.0,28.0,70,0.00,,,0.00,Wunderground v.1.15,2013-12-18 18:18:00,
2013-12-18 13:24:00,31.2,23.2,29.95,West,276,23.0,25.0,72,0.00,,,0.00,Wunderground v.1.15,2013-12-18 18:24:00,
2013-12-18 13:30:00,31.5,23.2,29.95,West,279,21.0,21.0,71,0.00,,,0.00,Wunderground v.1.15,2013-12-18 18:30:00,
2013-12-18 13:37:00,31.8,22.4,29.95,West,271,19.0,30.0,68,0.00,,,0.00,Wunderground v.1.15,2013-12-18 18:37:00,
2013-12-18 13:42:00,31.7,21.6,29.95,WNW,289,23.0,29.0,66,0.00,,,0.00,Wunderground v.1.15,2013-12-18 18:42:00,
2013-12-18 13:48:00,31.8,21.7,29.94,NW,306,27.0,33.0,66,0.00,,,0.00,Wunderground v.1.15,2013-12-18 18:48:00,
2013-12-18 13:54:00,31.9,21.8,29.95,West,280,28.0,29.0,66,0.00,,,0.00,Wunderground v.1.15,2013-12-18 18:54:00,
2013-12-18 14:00:00,31.9,20.7,29.95,WNW,288,26.0,33.0,63,0.00,,,0.00,Wunderground v.1.15,2013-12-18 19:00:00,
2013-12-18 14:06:00,31.9,21.1,29.96,WNW,303,28.0,33.0,64,0.00,,,0.00,Wunderground v.1.15,2013-12-18 19:06:00,
2013-12-18 14:14:00,32.2,21.7,29.95,WNW,287,25.0,35.0,65,0.00,,,0.00,Wunderground v.1.15,2013-12-18 19:14:00,
2013-12-18 14:20:00,32.1,21.7,29.96,WNW,283,25.0,27.0,65,0.00,,,0.00,Wunderground v.1.15,2013-12-18 19:20:00,
2013-12-18 14:26:00,32.1,21.7,29.96,WNW,288,26.0,37.0,65,0.00,,,0.00,Wunderground v.1.15,2013-12-18 19:26:00,
2013-12-18 14:32:00,32.1,21.3,29.96,West,278,28.0,30.0,64,0.00,,,0.00,Wunderground v.1.15,2013-12-18 19:32:00,
2013-12-18 14:38:00,32.1,21.3,29.97,WNW,290,26.0,30.0,64,0.00,,,0.00,Wunderground v.1.15,2013-12-18 19:38:00,
2013-12-18 14:44:00,32.1,20.9,29.98,West,278,24.0,32.0,63,0.00,,,0.00,Wunderground v.1.15,2013-12-18 19:44:00,
2013-12-18 14:50:00,32.1,20.5,29.97,WNW,294,28.0,33.0,62,0.00,,,0.00,Wunderground v.1.15,2013-12-18 19:50:00,
2013-12-18 14:56:00,32.1,20.9,29.98,WNW,282,29.0,33.0,63,0.00,,,0.00,Wunderground v.1.15,2013-12-18 19:56:00,
2013-12-18 15:02:00,32.1,20.9,29.98,WNW,297,28.0,28.0,63,0.00,,,0.00,Wunderground v.1.15,2013-12-18 20:02:00,
2013-12-18 15:08:00,32.4,20.8,29.99,WNW,287,24.0,28.0,62,0.00,,,0.00,Wunderground v.1.15,2013-12-18 20:08:00,
2013-12-18 15:14:00,32.4,21.6,29.99,West,273,23.0,27.0,64,0.00,,,0.00,Wunderground v.1.15,2013-12-18 20:14:00,
2013-12-18 15:20:00,32.4,21.6,29.99,WNW,287,24.0,25.0,64,0.00,,,0.00,Wunderground v.1.15,2013-12-18 20:20:00,
2013-12-18 15:28:00,32.5,21.3,29.99,WNW,302,23.0,29.0,63,0.00,,,0.00,Wunderground v.1.15,2013-12-18 20:28:00,
2013-12-18 15:34:00,32.6,21.0,29.99,West,274,22.0,22.0,62,0.00,,,0.00,Wunderground v.1.15,2013-12-18 20:34:00,
2013-12-18 15:40:00,32.6,21.0,30.00,WNW,290,22.0,24.0,62,0.00,,,0.00,Wunderground v.1.15,2013-12-18 20:40:00,
2013-12-18 15:48:00,32.5,21.7,29.99,WSW,255,21.0,24.0,64,0.00,,,0.00,Wunderground v.1.15,2013-12-18 20:48:00,
2013-12-18 15:54:00,32.6,21.0,29.99,WNW,288,24.0,27.0,62,0.00,,,0.00,Wunderground v.1.15,2013-12-18 20:54:00,
2013-12-18 16:00:00,32.8,20.8,30.00,WNW,286,27.0,27.0,61,0.00,,,0.00,Wunderground v.1.15,2013-12-18 21:00:00,
2013-12-18 16:08:00,32.7,20.7,30.00,SW,219,24.0,27.0,61,0.00,,,0.00,Wunderground v.1.15,2013-12-18 21:08:00,
2013-12-18 16:14:00,32.6,20.2,30.00,WNW,284,24.0,25.0,60,0.00,,,0.00,Wunderground v.1.15,2013-12-18 21:14:00,
2013-12-18 16:20:00,32.7,20.7,30.01,West,278,25.0,25.0,61,0.00,,,0.00,Wunderground v.1.15,2013-12-18 21:20:00,
2013-12-18 16:28:00,32.7,19.9,30.01,WNW,288,19.0,25.0,59,0.00,,,0.00,Wunderground v.1.15,2013-12-18 21:28:00,
2013-12-18 16:34:00,32.8,20.0,30.01,WNW,292,22.0,27.0,59,0.00,,,0.00,Wunderground v.1.15,2013-12-18 21:34:00,
2013-12-18 16:40:00,32.6,21.0,30.01,West,266,19.0,19.0,62,0.00,,,0.00,Wunderground v.1.15,2013-12-18 21:40:00,
2013-12-18 16:46:00,32.4,20.8,30.01,West,281,14.0,21.0,62,0.00,,,0.00,Wunderground v.1.15,2013-12-18 21:46:00,
2013-12-18 16:52:00,32.4,20.0,30.01,WNW,283,16.0,17.0,60,0.00,,,0.00,Wunderground v.1.15,2013-12-18 21:52:00,
2013-12-18 16:58:00,32.3,20.0,30.02,SW,218,17.0,21.0,60,0.00,,,0.00,Wunderground v.1.15,2013-12-18 21:58:00,
2013-12-18 17:04:00,32.3,20.0,30.02,WSW,250,17.0,20.0,60,0.00,,,0.00,Wunderground v.1.15,2013-12-18 22:04:00,
2013-12-18 17:10:00,32.4,20.0,30.02,West,278,19.0,19.0,60,0.00,,,0.00,Wunderground v.1.15,2013-12-18 22:10:00,
2013-12-18 17:16:00,32.4,19.7,30.02,West,272,19.0,20.0,59,0.00,,,0.00,Wunderground v.1.15,2013-12-18 22:16:00,
2013-12-18 17:22:00,32.5,19.7,30.02,NW,324,19.0,20.0,59,0.00,,,0.00,Wunderground v.1.15,2013-12-18 22:22:00,
2013-12-18 17:28:00,32.4,19.7,30.03,WSW,257,19.0,20.0,59,0.00,,,0.00,Wunderground v.1.15,2013-12-18 22:28:00,
2013-12-18 17:34:00,32.4,19.7,30.03,SW,228,18.0,20.0,59,0.00,,,0.00,Wunderground v.1.15,2013-12-18 22:34:00,
2013-12-18 17:40:00,32.3,20.0,30.03,WSW,253,15.0,15.0,60,0.00,,,0.00,Wunderground v.1.15,2013-12-18 22:40:00,
2013-12-18 17:48:00,32.1,20.2,30.04,West,261,11.0,15.0,61,0.00,,,0.00,Wunderground v.1.15,2013-12-18 22:48:00,
2013-12-18 17:54:00,32.0,20.1,30.04,SW,222,12.0,15.0,61,0.00,,,0.00,Wunderground v.1.15,2013-12-18 22:54:00,
2013-12-18 18:00:00,31.8,20.3,30.04,NW,316,12.0,14.0,62,0.00,,,0.00,Wunderground v.1.15,2013-12-18 23:00:00,
2013-12-18 18:07:00,31.7,20.5,30.05,West,266,14.0,17.0,63,0.00,,,0.00,Wunderground v.1.15,2013-12-18 23:07:00,
2013-12-18 18:12:00,31.4,20.6,30.05,WSW,253,15.0,22.0,64,0.00,,,0.00,Wunderground v.1.15,2013-12-18 23:12:00,
2013-12-18 18:18:00,31.3,20.5,30.05,West,269,16.0,22.0,64,0.00,,,0.00,Wunderground v.1.15,2013-12-18 23:18:00,
2013-12-18 18:24:00,31.2,20.8,30.05,SW,233,17.0,26.0,65,0.00,,,0.00,Wunderground v.1.15,2013-12-18 23:24:00,
2013-12-18 18:30:00,31.2,20.4,30.05,West,271,17.0,17.0,64,0.00,,,0.00,Wunderground v.1.15,2013-12-18 23:30:00,
2013-12-18 18:36:00,31.0,20.6,30.05,WNW,282,16.0,17.0,65,0.00,,,0.00,Wunderground v.1.15,2013-12-18 23:36:00,
2013-12-18 18:42:00,31.0,20.6,30.06,NW,308,16.0,21.0,65,0.00,,,0.00,Wunderground v.1.15,2013-12-18 23:42:00,
2013-12-18 18:48:00,31.0,20.6,30.06,WNW,295,16.0,21.0,65,0.00,,,0.00,Wunderground v.1.15,2013-12-18 23:48:00,
2013-12-18 18:54:00,30.8,20.8,30.07,West,261,16.0,16.0,66,0.00,,,0.00,Wunderground v.1.15,2013-12-18 23:54:00,
2013-12-18 19:00:00,30.6,20.6,30.07,West,278,15.0,19.0,66,0.00,,,0.00,Wunderground v.1.15,2013-12-19 00:00:00,
2013-12-18 19:06:00,30.7,20.3,30.07,West,270,15.0,19.0,65,0.00,,,0.00,Wunderground v.1.15,2013-12-19 00:06:00,
2013-12-18 19:12:00,30.9,20.5,30.07,WNW,287,16.0,17.0,65,0.00,,,0.00,Wunderground v.1.15,2013-12-19 00:12:00,
2013-12-18 19:18:00,30.9,20.5,30.07,SSW,209,15.0,17.0,65,0.00,,,0.00,Wunderground v.1.15,2013-12-19 00:18:00,
2013-12-18 19:24:00,30.9,20.5,30.08,West,262,13.0,15.0,65,0.00,,,0.00,Wunderground v.1.15,2013-12-19 00:24:00,
2013-12-18 19:30:00,30.9,20.5,30.08,West,269,13.0,13.0,65,0.00,,,0.00,Wunderground v.1.15,2013-12-19 00:30:00,
2013-12-18 19:36:00,30.9,20.5,30.08,WSW,252,13.0,14.0,65,0.00,,,0.00,Wunderground v.1.15,2013-12-19 00:36:00,
2013-12-18 19:42:00,30.9,20.5,30.08,SW,221,14.0,15.0,65,0.00,,,0.00,Wunderground v.1.15,2013-12-19 00:42:00,
2013-12-18 19:48:00,31.0,20.2,30.08,West,261,14.0,17.0,64,0.00,,,0.00,Wunderground v.1.15,2013-12-19 00:48:00,
2013-12-18 19:54:00,31.0,20.2,30.08,NNW,339,15.0,15.0,64,0.00,,,0.00,Wunderground v.1.15,2013-12-19 00:54:00,
2013-12-18 20:00:00,31.0,20.2,30.08,WSW,256,14.0,14.0,64,0.00,,,0.00,Wunderground v.1.15,2013-12-19 01:00:00,
2013-12-18 20:06:00,30.9,20.5,30.09,NW,314,13.0,14.0,65,0.00,,,0.00,Wunderground v.1.15,2013-12-19 01:06:00,
2013-12-18 20:14:00,30.9,20.5,30.09,West,266,13.0,13.0,65,0.00,,,0.00,Wunderground v.1.15,2013-12-19 01:14:00,
2013-12-18 20:20:00,30.8,20.4,30.09,WSW,247,12.0,12.0,65,0.00,,,0.00,Wunderground v.1.15,2013-12-19 01:20:00,
2013-12-18 20:27:00,30.8,20.4,30.09,West,259,12.0,15.0,65,0.00,,,0.00,Wunderground v.1.15,2013-12-19 01:27:00,
2013-12-18 20:38:00,30.8,20.4,30.09,WSW,240,10.0,12.0,65,0.00,,,0.00,Wunderground v.1.15,2013-12-19 01:38:00,
2013-12-18 20:44:00,30.8,20.4,30.09,West,271,11.0,13.0,65,0.00,,,0.00,Wunderground v.1.15,2013-12-19 01:44:00,
2013-12-18 20:50:00,30.7,20.3,30.09,WSW,242,11.0,14.0,65,0.00,,,0.00,Wunderground v.1.15,2013-12-19 01:50:00,
2013-12-18 20:56:00,30.6,20.6,30.09,West,264,11.0,14.0,66,0.00,,,0.00,Wunderground v.1.15,2013-12-19 01:56:00,
2013-12-18 21:02:00,30.5,20.5,30.10,West,264,11.0,11.0,66,0.00,,,0.00,Wunderground v.1.15,2013-12-19 02:02:00,
2013-12-18 21:08:00,30.3,20.3,30.10,North,351,11.0,14.0,66,0.00,,,0.00,Wunderground v.1.15,2013-12-19 02:08:00,
2013-12-18 21:14:00,30.2,20.6,30.10,SSW,195,10.0,12.0,67,0.00,,,0.00,Wunderground v.1.15,2013-12-19 02:14:00,
2013-12-18 21:20:00,30.3,20.6,30.09,West,264,11.0,14.0,67,0.00,,,0.00,Wunderground v.1.15,2013-12-19 02:20:00,
2013-12-18 21:28:00,30.4,20.7,30.10,West,271,11.0,15.0,67,0.00,,,0.00,Wunderground v.1.15,2013-12-19 02:28:00,
2013-12-18 21:34:00,30.4,20.4,30.09,WNW,288,10.0,12.0,66,0.00,,,0.00,Wunderground v.1.15,2013-12-19 02:34:00,
2013-12-18 21:40:00,30.4,21.1,30.10,SSW,205,10.0,12.0,68,0.00,,,0.00,Wunderground v.1.15,2013-12-19 02:40:00,
2013-12-18 21:46:00,30.3,21.0,30.09,West,264,9.0,11.0,68,0.00,,,0.00,Wunderground v.1.15,2013-12-19 02:46:00,
2013-12-18 21:52:00,30.4,21.1,30.10,SW,224,10.0,12.0,68,0.00,,,0.00,Wunderground v.1.15,2013-12-19 02:52:00,
2013-12-18 21:58:00,30.6,21.3,30.10,SW,236,11.0,11.0,68,0.00,,,0.00,Wunderground v.1.15,2013-12-19 02:58:00,
2013-12-18 22:04:00,30.5,21.2,30.10,NNE,20,11.0,14.0,68,0.00,,,0.00,Wunderground v.1.15,2013-12-19 03:04:00,
2013-12-18 22:10:00,30.4,21.1,30.10,WSW,255,11.0,12.0,68,0.00,,,0.00,Wunderground v.1.15,2013-12-19 03:10:00,
2013-12-18 22:16:00,30.2,20.9,30.10,West,268,11.0,12.0,68,0.00,,,0.00,Wunderground v.1.15,2013-12-19 03:16:00,
2013-12-18 22:22:00,30.2,20.9,30.10,South,186,12.0,15.0,68,0.00,,,0.00,Wunderground v.1.15,2013-12-19 03:22:00,
2013-12-18 22:28:00,30.2,20.9,30.10,South,186,12.0,15.0,68,0.00,,,0.00,Wunderground v.1.15,2013-12-19 03:28:00,
2013-12-18 22:34:00,30.2,20.9,30.10,West,263,11.0,15.0,68,0.00,,,0.00,Wunderground v.1.15,2013-12-19 03:34:00,
2013-12-18 22:40:00,30.2,20.9,30.10,WSW,248,11.0,14.0,68,0.00,,,0.00,Wunderground v.1.15,2013-12-19 03:40:00,
2013-12-18 22:46:00,30.2,20.9,30.10,WNW,288,12.0,14.0,68,0.00,,,0.00,Wunderground v.1.15,2013-12-19 03:46:00,
2013-12-18 22:52:00,30.2,20.9,30.10,SSW,212,12.0,13.0,68,0.00,,,0.00,Wunderground v.1.15,2013-12-19 03:52:00,
2013-12-18 22:58:00,30.1,20.8,30.10,WNW,288,11.0,13.0,68,0.00,,,0.00,Wunderground v.1.15,2013-12-19 03:58:00,
2013-12-18 23:04:00,30.3,20.6,30.10,SW,224,11.0,14.0,67,0.00,,,0.00,Wunderground v.1.15,2013-12-19 04:04:00,
2013-12-18 23:10:00,30.3,20.6,30.10,SSW,207,12.0,12.0,67,0.00,,,0.00,Wunderground v.1.15,2013-12-19 04:10:00,
2013-12-18 23:18:00,30.3,20.3,30.10,West,264,13.0,16.0,66,0.00,,,0.00,Wunderground v.1.15,2013-12-19 04:18:00,
2013-12-18 23:24:00,30.1,20.5,30.10,WSW,240,12.0,16.0,67,0.00,,,0.00,Wunderground v.1.15,2013-12-19 04:24:00,
2013-12-18 23:30:00,30.0,20.4,30.10,NE,43,12.0,12.0,67,0.00,,,0.00,Wunderground v.1.15,2013-12-19 04:30:00,
2013-12-18 23:36:00,30.1,20.1,30.10,West,259,10.0,13.0,66,0.00,,,0.00,Wunderground v.1.15,2013-12-19 04:36:00,
2013-12-18 23:42:00,30.1,20.1,30.10,West,260,10.0,13.0,66,0.00,,,0.00,Wunderground v.1.15,2013-12-19 04:42:00,
2013-12-18 23:48:00,30.4,20.4,30.10,West,269,10.0,13.0,66,0.00,,,0.00,Wunderground v.1.15,2013-12-19 04:48:00,
2013-12-18 23:54:00,30.6,20.6,30.09,West,263,11.0,11.0,66,0.00,,,0.00,Wunderground v.1.15,2013-12-19 04:54:00,